When you browse on this site, cookies collect data to enhance your experience and personalize the content and advertising you see.
Visit our Privacy Policy to learn more. By continuing to use the site, you agree to this use of cookies and data.
  • în România
  • Lista ţărilor
  • Pe 7 zile
  • Temperatura apei
  • Meteo pe hartă
  • Widget-uri
  • user-avatar
    Intrare

    Meteo pe oră la Aberdeen

    Astăzi, 11 Decembrie, Miercuri

    Timp Temperatura Precipitaţii Vânt Presiune Umiditate
    00:00 +2°C° 0 mm 7 m/s 735 mmHg 85%
    01:00 +2°C° 0 mm 7 m/s 735 mmHg 83%
    02:00 +2°C° 0 mm 7 m/s 736 mmHg 80%
    03:00 0°C° 0 mm 7 m/s 736 mmHg 78%
    04:00 0°C° 0 mm 8 m/s 736 mmHg 79%
    05:00 0°C° 0 mm 9 m/s 736 mmHg 81%
    06:00 0°C° 0 mm 10 m/s 736 mmHg 82%
    07:00 0°C° 0 mm 9 m/s 736 mmHg 83%
    08:00 0°C° 0 mm 9 m/s 735 mmHg 84%
    09:00 0°C° 0 mm 9 m/s 735 mmHg 85%
    10:00 +1°C° 0 mm 9 m/s 735 mmHg 83%
    11:00 +1°C° 0 mm 9 m/s 735 mmHg 81%
    12:00 +1°C° 0 mm 8 m/s 735 mmHg 78%
    13:00 +1°C° 0 mm 8 m/s 735 mmHg 78%
    14:00 +2°C° 0 mm 7 m/s 735 mmHg 79%
    15:00 +2°C° 0 mm 6 m/s 735 mmHg 79%
    16:00 +1°C° 0 mm 6 m/s 735 mmHg 79%
    17:00 +1°C° 0 mm 6 m/s 735 mmHg 80%
    18:00 +1°C° 0 mm 6 m/s 736 mmHg 81%
    19:00 +1°C° 0 mm 6 m/s 736 mmHg 81%
    20:00 +1°C° 0 mm 6 m/s 736 mmHg 81%
    21:00 -1°C° 0 mm 6 m/s 736 mmHg 82%
    22:00 -1°C° 0 mm 6 m/s 736 mmHg 83%
    23:00 -1°C° 0 mm 6 m/s 736 mmHg 85%

    Mâine, 12 Decembrie, Joi

    Timp Temperatura Precipitaţii Vânt Presiune Umiditate
    00:00 0°C° 0 mm 5 m/s 736 mmHg 87%
    01:00 -1°C° 0 mm 6 m/s 736 mmHg 88%
    02:00 -1°C° 0 mm 6 m/s 735 mmHg 90%
    03:00 -1°C° 0 mm 6 m/s 735 mmHg 91%
    04:00 -1°C° 0.2 mm 6 m/s 734 mmHg 91%
    05:00 0°C° 0.2 mm 5 m/s 734 mmHg 91%
    06:00 0°C° 0.2 mm 5 m/s 733 mmHg 91%
    07:00 0°C° 0 mm 5 m/s 733 mmHg 90%
    08:00 -1°C° 0 mm 4 m/s 732 mmHg 89%
    09:00 0°C° 0 mm 3 m/s 731 mmHg 88%
    10:00 0°C° 0.1 mm 4 m/s 730 mmHg 89%
    11:00 0°C° 0.1 mm 4 m/s 729 mmHg 90%
    12:00 +1°C° 0.1 mm 4 m/s 728 mmHg 92%
    13:00 +1°C° 0.9 mm 5 m/s 727 mmHg 94%
    14:00 +1°C° 0.9 mm 5 m/s 726 mmHg 96%
    15:00 +1°C° 0.9 mm 5 m/s 724 mmHg 97%
    16:00 +1°C° 0.9 mm 4 m/s 723 mmHg 97%
    17:00 +1°C° 0.9 mm 4 m/s 722 mmHg 97%
    18:00 +2°C° 0.9 mm 3 m/s 721 mmHg 97%
    19:00 +3°C° 0.1 mm 2 m/s 720 mmHg 97%
    20:00 +4°C° 0.1 mm 2 m/s 720 mmHg 97%
    21:00 +5°C° 0.1 mm 1 m/s 719 mmHg 97%
    22:00 +4°C° 0 mm 1 m/s 718 mmHg 96%
    23:00 +4°C° 0 mm 1 m/s 718 mmHg 96%

    Poimâine, 13 Decembrie, Vineri

    Timp Temperatura Precipitaţii Vânt Presiune Umiditate
    00:00 +4°C° 0 mm 1 m/s 718 mmHg 95%
    01:00 +4°C° 0 mm 1 m/s 718 mmHg 95%
    02:00 +4°C° 0 mm 1 m/s 717 mmHg 94%
    03:00 +3°C° 0 mm 2 m/s 717 mmHg 94%
    04:00 +2°C° 0 mm 2 m/s 718 mmHg 93%
    05:00 +1°C° 0 mm 3 m/s 718 mmHg 92%
    06:00 +1°C° 0 mm 3 m/s 719 mmHg 91%
    07:00 +1°C° 0 mm 3 m/s 719 mmHg 90%
    08:00 0°C° 0 mm 4 m/s 720 mmHg 90%
    09:00 0°C° 0 mm 4 m/s 721 mmHg 89%
    10:00 +1°C° 0 mm 5 m/s 721 mmHg 88%
    11:00 +2°C° 0 mm 6 m/s 722 mmHg 88%
    12:00 +3°C° 0 mm 6 m/s 722 mmHg 87%
    13:00 +3°C° 0 mm 6 m/s 723 mmHg 86%
    14:00 +2°C° 0 mm 7 m/s 723 mmHg 86%
    15:00 +2°C° 0 mm 7 m/s 724 mmHg 85%
    16:00 +2°C° 0 mm 6 m/s 724 mmHg 85%
    17:00 +1°C° 0 mm 6 m/s 724 mmHg 85%
    18:00 0°C° 0 mm 5 m/s 724 mmHg 84%
    19:00 -1°C° 0 mm 4 m/s 724 mmHg 86%
    20:00 -1°C° 0 mm 4 m/s 724 mmHg 87%
    21:00 -1°C° 0 mm 3 m/s 724 mmHg 88%
    22:00 -1°C° 0 mm 3 m/s 724 mmHg 87%
    23:00 -1°C° 0 mm 2 m/s 723 mmHg 86%

    14 Decembrie, Sâmbătă

    Timp Temperatura Precipitaţii Vânt Presiune Umiditate
    00:00 +1°C° 0 mm 1 m/s 723 mmHg 85%
    01:00 +1°C° 0 mm 1 m/s 722 mmHg 84%
    02:00 +2°C° 0 mm 1 m/s 721 mmHg 83%
    03:00 +2°C° 0 mm 1 m/s 721 mmHg 81%
    04:00 +2°C° 0.1 mm 1 m/s 721 mmHg 83%
    05:00 +1°C° 0.1 mm 2 m/s 721 mmHg 85%
    06:00 +1°C° 0.1 mm 2 m/s 721 mmHg 87%
    07:00 +1°C° 0.1 mm 2 m/s 721 mmHg 90%
    08:00 +1°C° 0.1 mm 2 m/s 722 mmHg 93%
    09:00 0°C° 0.1 mm 3 m/s 722 mmHg 96%
    10:00 0°C° 0.1 mm 3 m/s 722 mmHg 93%
    11:00 0°C° 0.1 mm 4 m/s 722 mmHg 91%
    12:00 0°C° 0.1 mm 5 m/s 722 mmHg 88%
    13:00 -1°C° 0.1 mm 6 m/s 722 mmHg 89%
    14:00 -1°C° 0.1 mm 6 m/s 722 mmHg 90%
    15:00 -1°C° 0.1 mm 7 m/s 722 mmHg 91%
    16:00 -2°C° 0.1 mm 7 m/s 722 mmHg 92%
    17:00 -2°C° 0.1 mm 7 m/s 722 mmHg 92%
    18:00 -2°C° 0.1 mm 7 m/s 723 mmHg 93%
    19:00 -2°C° 0.4 mm 8 m/s 723 mmHg 89%
    20:00 -3°C° 0.4 mm 9 m/s 724 mmHg 85%
    21:00 -2°C° 0.4 mm 11 m/s 724 mmHg 81%
    22:00 -3°C° 0 mm 10 m/s 725 mmHg 80%
    23:00 -3°C° 0 mm 10 m/s 725 mmHg 78%

    15 Decembrie, Duminică

    Timp Temperatura Precipitaţii Vânt Presiune Umiditate
    00:00 -3°C° 0 mm 9 m/s 726 mmHg 76%
    01:00 -2°C° 0 mm 8 m/s 726 mmHg 77%
    02:00 -3°C° 0 mm 7 m/s 726 mmHg 78%
    03:00 -3°C° 0 mm 7 m/s 727 mmHg 79%
    04:00 -3°C° 0 mm 6 m/s 727 mmHg 80%
    05:00 -3°C° 0 mm 6 m/s 727 mmHg 82%
    06:00 -3°C° 0 mm 6 m/s 728 mmHg 83%
    07:00 -3°C° 0 mm 6 m/s 728 mmHg 85%
    08:00 -4°C° 0 mm 5 m/s 728 mmHg 86%
    09:00 -3°C° 0 mm 4 m/s 728 mmHg 88%
    10:00 -2°C° 0 mm 5 m/s 729 mmHg 89%
    11:00 -3°C° 0 mm 6 m/s 729 mmHg 90%
    12:00 -2°C° 0 mm 6 m/s 730 mmHg 90%
    13:00 -2°C° 0 mm 6 m/s 731 mmHg 91%
    14:00 -1°C° 0 mm 5 m/s 731 mmHg 92%
    15:00 -1°C° 0 mm 4 m/s 732 mmHg 92%
    16:00 -1°C° 0.4 mm 4 m/s 732 mmHg 93%
    17:00 -1°C° 0.4 mm 4 m/s 733 mmHg 93%
    18:00 0°C° 0.4 mm 4 m/s 733 mmHg 93%
    19:00 -1°C° 0 mm 4 m/s 734 mmHg 92%
    20:00 -2°C° 0 mm 4 m/s 734 mmHg 91%
    21:00 -1°C° 0 mm 3 m/s 734 mmHg 89%
    22:00 -1°C° 0 mm 3 m/s 735 mmHg 89%
    23:00 -2°C° 0 mm 3 m/s 735 mmHg 89%

    16 Decembrie, Luni

    Timp Temperatura Precipitaţii Vânt Presiune Umiditate
    00:00 -2°C° 0 mm 3 m/s 735 mmHg 89%
    01:00 -2°C° 0 mm 2 m/s 735 mmHg 90%
    02:00 -2°C° 0 mm 2 m/s 735 mmHg 91%
    03:00 -2°C° 0 mm 2 m/s 735 mmHg 91%
    04:00 -2°C° 0 mm 2 m/s 735 mmHg 91%
    05:00 -2°C° 0 mm 2 m/s 735 mmHg 92%
    06:00 -2°C° 0 mm 2 m/s 735 mmHg 92%
    07:00 -1°C° 0 mm 2 m/s 735 mmHg 92%
    08:00 -1°C° 0 mm 2 m/s 734 mmHg 93%
    09:00 0°C° 0 mm 3 m/s 734 mmHg 93%
    10:00 0°C° 0.3 mm 3 m/s 734 mmHg 93%
    11:00 +1°C° 0.3 mm 3 m/s 734 mmHg 94%
    12:00 +1°C° 0.3 mm 3 m/s 734 mmHg 94%
    13:00 +1°C° 0.1 mm 3 m/s 735 mmHg 94%
    14:00 +1°C° 0.1 mm 3 m/s 735 mmHg 95%
    15:00 +1°C° 0.1 mm 3 m/s 735 mmHg 96%
    16:00 0°C° 0 mm 3 m/s 735 mmHg 94%
    17:00 -1°C° 0 mm 3 m/s 736 mmHg 93%
    18:00 -3°C° 0 mm 4 m/s 736 mmHg 92%
    19:00 -2°C° 0 mm 3 m/s 737 mmHg 91%
    20:00 -2°C° 0 mm 3 m/s 737 mmHg 90%
    21:00 -2°C° 0 mm 3 m/s 738 mmHg 89%
    22:00 -2°C° 0 mm 3 m/s 738 mmHg 90%
    23:00 -2°C° 0 mm 3 m/s 738 mmHg 91%
    Arată mai mult